METEOR 2-17 DEB, 45522

Orbit data source: Space-Track

METEOR 2-17 DEB, 45522 is space debris in LEO originally from a launch on Sat, 30 Jan 1988 UTC launched from the Plesetsk Missile And Space Complex (PKMTR). Debris objects in space refer to the collection of defunct objects orbiting the Earth. Examples of debris include non-operational satellites, rocket bodies, and fragments generated from explosions, collisions, or faulty payload assembly.

Loading next visibility...
Identifier
45522, 1988-005BC
Orbit
LEO
Country
Flag of CISCIS
Related business
Manufacturer
Unknown
Mission
Spacecraft
Bus & Motor
Unknown
Mass
Unknown
Launch date (UTC)
1988-01-30 (38 years ago)
Launch vehicle
Unknown
Launch site
Plesetsk Missile And Space Complex (PKMTR)
Object type
Payload
Rocket body
Debris
Shape & HBR
Unknown shape, 0.1 m
Radar Cross Section
Small (<0.1 m²)

Expand to show TLE details & history
Last TLE update: 1 day ago

TLE from 1 day ago
0 METEOR 2-17 DEB
1 45522U 88005BC  25305.70226194  .00001973  00000-0  12986-2 0  9993
2 45522  82.5349  94.8595 0011910 261.8221  98.1598 14.01370352559875
Epoch: 2025-11-01T16:51Z
TLE epoch observation values (Epoch: 2025-11-01T16:51:15.431Z)
Latitude
-0.00003°
Longitude
160.81665°
Altitude
893.218 km
Speed
7.405 km/s
True Right ascension
06h 19m 26s
True Declination
0° 00' 00"
Sunlit
Object was in full shadow at epoch
Visualization orbit readout
Latitude
Unknown
Longitude
Unknown
Altitude
Unknown
Speed
Unknown
Apparent Right ascension
Unknown
Apparent Declination
Unknown
Sunlit
N/A
Visualization observer readout
Local Sidereal Time
16:40:23
Azimuth
Unknown
Elevation
Unknown
Doppler factor
Unknown
Orbital elements
Apogee altitude
894.834 km
Perigee altitude
877.531 km
Semi-major axis
7,264.319 km
Eccentricity
0.00119
Inclination
82.5349°
RAAN
94.8595°
Arg. of periapsis
261.8221°
True anomaly
98.29487°
Mean anomaly
98.1598°
Eccentric anomaly
98.22734°
Mean motion
3.50551 °/min
Orbital period
102.7 mins
BSTAR
0.0012986
Loading maneuver chart data...
Computing Atmospheric mass density...
Loading historical data...
Loading historical data...
Loading historical data...
Loading historical data...
Loading historical data...
Loading historical data...
Loading historical data...

Documentation

Showing up to 5 results
|